Weather History for Fort Rucker / Ozark, AL

Change the Weather History Date:

Monday, June 24, 2013

  Actual Average (KDHN) Record (KDHN)
Temperature  
Mean Temperature 80 °F 81 °F  
Max Temperature 91 °F 91 °F 101 °F (1944)
Min Temperature 69 °F 71 °F 61 °F (1947)
Cooling Degree Days 15 16  
Month to date cooling degree days 347  
Year to date cooling degree days 760  
Since 1 June cooling degree days 347  
Growing Degree Days 30 (Base 50)    
Moisture  
Dew Point 69 °F    
Average Humidity 80    
Maximum Humidity 100    
Minimum Humidity 43    
Precipitation  
Precipitation 0.04 in 0.17 in 1.66 in (1957)
Month to date precipitation 4.57  
Year to date precipitation 26.93  
Sea Level Pressure  
Sea Level Pressure 30.13 in    
Wind  
Wind Speed 1 mph (South)    
Max Wind Speed 16 mph    
Max Gust Speed 25 mph    
Visibility 7 miles    
Events Rain , Thunderstorm    
T = Trace of Precipitation, MM = Missing Value Source: NWS Daily Summary

Daily Weather History Graph

Daily Weather History Graph

Search for Another Location

Airport:

Trip Planner

Search our weather history database for the weather conditions in past years. The results will help you decide how hot, cold, wet, or windy it might be!

Date:

Astronomy

Jun. 24, 2013 Rise Set
Actual Time 5:39 AM CDT 7:51 PM CDT
Civil Twilight 5:11 AM CDT 8:19 PM CDT
Nautical Twilight 4:37 AM CDT 8:53 PM CDT
Astronomical Twilight 4:00 AM CDT 9:30 PM CDT
Moon 9:01 PM CDT (6/24) 7:00 AM CDT (6/24)
Length of Visible Light 15h 07m
Length of Day
14h 11m
Full, 98% of the Moon is Illuminated
Jun 24
Full
Jun 29
Last Quarter
Jul 8
New
Jul 15
First Quarter
Jul 22
Full

Hourly Weather History & Observations

Time (CDT) Temp. Heat Index Dew Point Humidity Pressure Visibility Wind Dir Wind Speed Gust Speed Precip Events Conditions
12:53 AM 71.1 °F - 70.0 °F 96% 30.13 in 7.0 mi Calm Calm - N/A   Clear
1:21 AM 71.6 °F - 69.8 °F 94% 30.13 in 1.8 mi Calm Calm - N/A   Clear
1:29 AM 71.6 °F - 69.8 °F 94% 30.13 in 1.5 mi Calm Calm - N/A   Partly Cloudy
1:32 AM 71.6 °F - 69.8 °F 94% 30.13 in 3.0 mi Calm Calm - N/A   Partly Cloudy
1:53 AM 70.0 °F - 70.0 °F 100% 30.13 in 6.0 mi Calm Calm - N/A   Clear
2:35 AM 69.8 °F - 69.8 °F 100% 30.13 in 2.0 mi Calm Calm - N/A   Clear
2:44 AM 69.8 °F - 69.8 °F 100% 30.13 in 4.0 mi Calm Calm - N/A   Clear
2:53 AM 70.0 °F - 69.1 °F 97% 30.12 in 4.0 mi Calm Calm - N/A   Clear
3:53 AM 70.0 °F - 69.1 °F 97% 30.12 in 8.0 mi Calm Calm - N/A   Clear
4:53 AM 70.0 °F - 69.1 °F 97% 30.14 in 6.0 mi Calm Calm - N/A   Clear
5:17 AM 69.8 °F - 69.8 °F 100% 30.15 in 7.0 mi Calm Calm - N/A   Partly Cloudy
5:41 AM 69.8 °F - 69.8 °F 100% 30.15 in 5.0 mi Calm Calm - N/A   Mostly Cloudy
5:53 AM 70.0 °F - 69.1 °F 97% 30.15 in 3.0 mi Calm Calm - N/A   Mostly Cloudy
6:03 AM 69.8 °F - 69.8 °F 100% 30.16 in 4.0 mi Calm Calm - N/A   Scattered Clouds
6:53 AM 72.0 °F - 71.1 °F 97% 30.17 in 6.0 mi Calm Calm - N/A   Clear
7:53 AM 75.9 °F - 73.0 °F 91% 30.17 in 10.0 mi Calm Calm - N/A   Clear
8:53 AM 80.1 °F 84.5 °F 73.9 °F 81% 30.19 in 10.0 mi Calm Calm - N/A   Clear
9:53 AM 84.0 °F 89.6 °F 72.0 °F 67% 30.18 in 10.0 mi Calm Calm - N/A   Clear
10:53 AM 86.0 °F 90.7 °F 70.0 °F 59% 30.18 in 10.0 mi Variable 4.6 mph - N/A   Clear
11:53 AM 88.0 °F 91.4 °F 68.0 °F 51% 30.16 in 10.0 mi South 8.1 mph - N/A   Clear
12:53 PM 90.0 °F 93.6 °F 68.0 °F 48% 30.14 in 10.0 mi Calm Calm - N/A   Clear
1:53 PM 89.1 °F 92.9 °F 68.0 °F 50% 30.13 in 10.0 mi SW 4.6 mph - N/A   Mostly Cloudy
2:53 PM 91.0 °F 95.2 °F 68.0 °F 47% 30.10 in 10.0 mi Variable 4.6 mph - N/A   Partly Cloudy
3:44 PM 91.4 °F 94.0 °F 66.2 °F 43% 30.10 in 10.0 mi SW 3.5 mph - N/A Thunderstorm Thunderstorm
3:53 PM 91.0 °F 93.8 °F 66.0 °F 44% 30.09 in 10.0 mi Variable 3.5 mph - N/A Thunderstorm Thunderstorm
4:00 PM 91.4 °F 94.0 °F 66.2 °F 43% 30.10 in 10.0 mi NE 4.6 mph - N/A   Mostly Cloudy
4:53 PM 82.0 °F 85.5 °F 69.1 °F 65% 30.10 in 10.0 mi South 11.5 mph 21.9 mph N/A   Mostly Cloudy
5:11 PM 80.6 °F 83.2 °F 68.0 °F 65% 30.10 in 10.0 mi South 6.9 mph - N/A Thunderstorm Thunderstorm
5:39 PM 80.6 °F 83.2 °F 68.0 °F 65% 30.13 in 2.0 mi WSW 16.1 mph 21.9 mph N/A Thunderstorm Unknown
5:53 PM 78.1 °F - 66.9 °F 68% 30.12 in 3.0 mi SSW 10.4 mph 25.3 mph N/A Thunderstorm Unknown
6:53 PM 75.9 °F - 68.0 °F 76% 30.11 in 5.0 mi Calm Calm - 0.02 in Rain Rain
7:53 PM 73.0 °F - 71.1 °F 93% 30.12 in 10.0 mi Calm Calm - 0.02 in   Mostly Cloudy
8:53 PM 73.0 °F - 71.1 °F 93% 30.12 in 10.0 mi East 3.5 mph - N/A   Clear
9:53 PM 73.0 °F - 71.1 °F 93% 30.12 in 10.0 mi Calm Calm - N/A   Clear
10:53 PM 73.0 °F - 71.1 °F 93% 30.14 in 10.0 mi Calm Calm - N/A   Clear
11:53 PM 71.1 °F - 70.0 °F 96% 30.14 in 10.0 mi Calm Calm - N/A   Clear